User: anonymous   Login
Location: Unspecified
(0.0000°N, 0.0000°E)
Time: 11:31:39
(UTC+00:00)
Language:

ATS 6 - Orbit

View from above orbital plane
View from above orbital plane
View from above satellite
View from above satellite

Ground track
Ground track

The orbit data is extracted from the following two-line orbital elements,

1  7318U 74039A   17264.73729872 -.00000210 +00000-0 +00000-0 0  9991
2  7318 009.4175 306.8852 0032476 229.2069 331.5389 01.01981255089462
Epoch (UTC): 21 September 2017 17:41:42
Eccentricity: 0.0032476
inclination: 9.4175°
perigee height: 35178 km
apogee height: 35449 km
right ascension of ascending node: 306.8852°
argument of perigee: 229.2069°
revolutions per day: 1.01981255
mean anomaly at epoch: 331.5389°
orbit number at epoch: 8946

The dashed part of the orbit path shows where the satellite is in the earth's shadow,  

DLR